Location: Fiennes
(50.8274°N, 1.8253°E)
Time: 23:32:00
(UTC+00:00)

CZ-2C R/B - Pass Details

Date: 15 May 2026
Orbit: 330 x 342 km, 97.7° (Epoch: 11 June)

Event Time Altitude Azimuth Distance (km) Brightness Sun altitude
Exits shadow 20:22:48 - 101° (E) 1,506 4.5 -6.8°
Reaches altitude 10° 20:23:52 10° 83° (E) 1,269 4.3 -6.9°
Maximum altitude 20:24:49 11° 62° (ENE) 1,195 4.4 -7.0°
Drops below altitude 10° 20:25:47 10° 41° (NE) 1,274 4.7 -7.2°
Sets 20:28:40 0° 5° (N) 2,122 6.4 -7.5°
